Saturna Island,

11:32 PM PDT on October 19, 2017 (GMT -0700)
Saturna Island

Weather History for CWEZ - November, 2012

Change the Weather History Date:

Thursday, November 22, 2012

  Actual Average Record
Temperature  
Mean Temperature 41 °F -  
Max Temperature 44 °F - - ()
Min Temperature 38 °F - - ()
Degree Days  
Heating Degree Days 24    
Moisture  
Dew Point 38 °F    
Average Humidity 81    
Maximum Humidity 91    
Minimum Humidity 69    
Precipitation  
Precipitation 0.02 in - - ()
Sea Level Pressure  
Sea Level Pressure 30.28 in    
Wind  
Wind Speed 13 mph ()    
Max Wind Speed 23 mph    
Max Gust Speed 22 mph    
T = Trace of Precipitation, MM = Missing Value Source: Averaged Metar Reports

Daily Weather History Graph

Daily Weather History Graph

Search for Another Location

Airport or City:

Trip Planner

Search our weather history database for the weather conditions in past years. The results will help you decide how hot, cold, wet, or windy it might be!

Date:

Astronomy

Nov. 22, 2012 Rise Set
Actual Time 7:32 AM PST 4:24 PM PST
Civil Twilight 6:57 AM PST 4:59 PM PST
Nautical Twilight 6:18 AM PST 5:38 PM PST
Astronomical Twilight 5:40 AM PST 6:16 PM PST
Moon 1:34 PM PST (11/22) 1:32 AM PST (11/22)
Length of Visible Light 10h 02m
Length of Day
8h 51m
Waxing Gibbous, 72% of the Moon is Illuminated
Nov 22
Waxing Gibbous
Nov 28
Full
Dec 6
Last Quarter
Dec 13
New
Dec 19
First Quarter

Hourly Weather History & Observations

Time (PST) Temp. Windchill Dew Point Humidity Pressure Visibility Wind Dir Wind Speed Gust Speed Precip Events Conditions
12:00 AM 39.6 °F 32.5 °F 36.7 °F 89% 30.27 in - SSW 11.5 mph - N/A   Unknown
1:00 AM 40.1 °F 33.2 °F 37.6 °F 91% 30.27 in - SSW 11.5 mph - 0.02 in   Unknown
2:00 AM 41.0 °F 33.9 °F 38.5 °F 91% 30.29 in - SSW 12.7 mph - N/A   Unknown
3:00 AM 41.0 °F 34.7 °F 38.7 °F 91% 30.32 in - SW 10.4 mph - N/A   Unknown
4:00 AM 40 °F - 38 °F 89% 30.32 in - SSW 3.5 mph - -  
4:00 AM 40.3 °F 38.2 °F 37.9 °F 91% 30.32 in - SSW 3.5 mph - N/A   Unknown
5:00 AM 42.1 °F 35.7 °F 39.2 °F 90% 30.33 in - South 11.5 mph - N/A   Unknown
6:00 AM 42.4 °F 33.8 °F 38.5 °F 86% 30.34 in - South 19.6 mph - N/A   Unknown
7:00 AM 42.8 °F 34.3 °F 37.9 °F 83% 30.34 in - SSE 19.6 mph - N/A   Unknown
8:00 AM 43.2 °F 35.0 °F 37.4 °F 80% 30.34 in - SSE 18.4 mph - N/A   Unknown
9:00 AM 44.2 °F 37.0 °F 37.2 °F 76% 30.34 in - SE 16.1 mph 21.9 mph N/A   Unknown
10:00 AM 43 °F - 38 °F 76% 30.34 in - East 17.3 mph - -  
10:00 AM 43.3 °F 35.5 °F 37.9 °F 81% 30.34 in - East 17.3 mph - N/A   Unknown
11:00 AM 43.3 °F 35.0 °F 37.9 °F 81% 30.33 in - East 19.6 mph - N/A   Unknown
12:00 PM 43.5 °F 36.1 °F 37.0 °F 78% 30.33 in - East 16.1 mph - N/A   Unknown
1:00 PM 43.5 °F 35.8 °F 36.5 °F 76% 30.32 in - East 17.3 mph - N/A   Unknown
2:00 PM 42.8 °F 35.8 °F 36.9 °F 80% 30.29 in - East 13.8 mph - N/A   Unknown
3:00 PM 43.3 °F 36.5 °F 37.2 °F 79% 30.30 in - East 13.8 mph - N/A   Unknown
4:00 PM 44 °F - 37 °F 70% 30.29 in - East 18.4 mph - -  
4:00 PM 43.5 °F 35.5 °F 37.4 °F 79% 30.29 in - East 18.4 mph - N/A   Unknown
5:00 PM 43.3 °F 34.2 °F 37.2 °F 79% 30.23 in - East 23.0 mph - N/A   Unknown
6:00 PM 44.4 °F 36.4 °F 36.7 °F 74% 30.21 in - East 19.6 mph - N/A   Unknown
7:00 PM 43.7 °F 35.4 °F 37.0 °F 77% 30.20 in - East 19.6 mph - N/A   Unknown
8:00 PM 43.5 °F 35.0 °F 37.0 °F 78% 30.17 in - East 20.7 mph - N/A   Unknown
9:00 PM 43.5 °F 37.1 °F 37.4 °F 79% 30.17 in - ENE 12.7 mph - N/A   Unknown
10:00 PM 44 °F - 37 °F 69% 30.15 in - East 13.8 mph - -  
10:00 PM 43.7 °F 36.9 °F 37.2 °F 78% 30.15 in - East 13.8 mph - N/A   Unknown
11:00 PM 44.2 °F 37.0 °F 37.2 °F 76% 30.12 in - ESE 16.1 mph - N/A   Unknown